Glendale Luke AFB, AZ

1:06 AM MST on December 08, 2019 (GMT -0700)
Luke Air Force Base

Weather History for KLUF - August, 2019

Change the Weather History Date:

Tuesday, August 6, 2019

  Actual Average Record
Temperature  
Mean Temperature 93 °F -  
Max Temperature 99 °F 107 °F 114 °F (1947)
Min Temperature 87 °F 76 °F 59 °F (1976)
Cooling Degree Days 28    
Growing Degree Days 43 (Base 50)    
Moisture  
Dew Point 62 °F    
Average Humidity 36    
Maximum Humidity 48    
Minimum Humidity 25    
Precipitation  
Precipitation 0.00 in - - ()
Sea Level Pressure  
Sea Level Pressure 29.81 in    
Wind  
Wind Speed 4 mph (ENE)    
Max Wind Speed 8 mph    
Max Gust Speed -    
Visibility 10 miles    
Events      
Averages and records for this station are not official NWS values.
T = Trace of Precipitation, MM = Missing Value Source: NWS Daily Summary

Daily Weather History Graph

Daily Weather History Graph

Search for Another Location

Airport or City:

Astronomy

Aug. 06, 2019 Rise Set
Actual Time 5:45 AM MST 7:25 PM MST
Civil Twilight 5:18 AM MST 7:51 PM MST
Nautical Twilight 4:46 AM MST 8:24 PM MST
Astronomical Twilight 4:11 AM MST 8:58 PM MST
Moon 11:56 AM MST (8/6) 11:32 PM MST (8/6)
Length of Visible Light 14h 33m
Length of Day
13h 39m
Waxing Crescent, 40% of the Moon is Illuminated
Aug 6
Waxing Crescent
Aug 7
First Quarter
Aug 15
Full
Aug 23
Last Quarter
Aug 30
New

Hourly Weather History & Observations

Time (MST) Temp. Heat Index Dew Point Humidity Pressure Visibility Wind Dir Wind Speed Gust Speed Precip Events Conditions
12:58 AM 90.1 °F 91.6 °F 63.9 °F 42% 29.80 in 10.0 mi East 8.1 mph - N/A   Partly Cloudy
1:58 AM 90.5 °F 91.8 °F 63.5 °F 41% 29.80 in 10.0 mi East 3.5 mph - N/A   Scattered Clouds
2:58 AM 87.8 °F 89.4 °F 64.9 °F 46% 29.79 in 10.0 mi North 4.6 mph - N/A   Clear
3:58 AM 87.3 °F 89.2 °F 65.1 °F 48% 29.79 in 10.0 mi North 4.6 mph - N/A   Overcast
4:58 AM 88.3 °F 89.5 °F 63.7 °F 44% 29.79 in 10.0 mi NNE 5.8 mph - N/A   Overcast
5:27 AM 87.8 °F 89.4 °F 64.4 °F 46% 29.81 in 10.0 mi Calm Calm - N/A   Light Drizzle
5:38 AM 87.8 °F 89.4 °F 64.4 °F 46% 29.81 in 10.0 mi North 3.5 mph - N/A   Overcast
5:58 AM 88.0 °F 89.0 °F 63.9 °F 44% 29.81 in 10.0 mi NW 5.8 mph - 0.00 in   Scattered Clouds
6:58 AM 89.2 °F 90.2 °F 63.1 °F 42% 29.83 in 10.0 mi Calm Calm - N/A   Mostly Cloudy
7:18 AM 89.6 °F 90.1 °F 62.6 °F 40% 29.85 in 10.0 mi Calm Calm - N/A   Light Drizzle
7:28 AM 89.6 °F 90.1 °F 62.6 °F 40% 29.85 in 10.0 mi East 3.5 mph - N/A   Overcast
7:58 AM 90.7 °F 91.3 °F 62.2 °F 39% 29.86 in 10.0 mi Calm Calm - 0.00 in   Overcast
8:06 AM 91.4 °F 92.1 °F 62.6 °F 38% 29.86 in 10.0 mi Calm Calm - N/A   Mostly Cloudy
8:13 AM 91.4 °F 92.1 °F 62.6 °F 38% 29.86 in 10.0 mi NNW 3.5 mph - N/A   Light Drizzle
8:22 AM 91.4 °F 92.1 °F 62.6 °F 38% 29.86 in 10.0 mi SSW 3.5 mph - N/A   Mostly Cloudy
8:58 AM 91.2 °F 92.5 °F 63.5 °F 40% 29.86 in 10.0 mi SSE 5.8 mph - 0.00 in   Mostly Cloudy
9:58 AM 92.7 °F 94.4 °F 64.0 °F 39% 29.87 in 10.0 mi ENE 3.5 mph - N/A   Mostly Cloudy
10:58 AM 96.8 °F 97.1 °F 60.3 °F 30% 29.86 in 10.0 mi SE 5.8 mph - N/A   Mostly Cloudy
12:10 PM 96.8 °F 98.0 °F 62.8 °F 32% 29.85 in 10.0 mi Variable 5.8 mph - N/A   Mostly Cloudy
12:58 PM 96.8 °F 97.5 °F 61.2 °F 31% 29.84 in 10.0 mi SE 3.5 mph - N/A   Scattered Clouds
1:31 PM 96.8 °F 97.1 °F 60.8 °F 30% 29.83 in 10.0 mi ENE 4.6 mph - N/A   Mostly Cloudy
2:17 PM 96.8 °F 97.1 °F 60.3 °F 30% 29.81 in 10.0 mi East 4.6 mph - N/A   Mostly Cloudy
2:58 PM 97.3 °F 97.5 °F 59.7 °F 29% 29.80 in 10.0 mi ESE 4.6 mph - N/A   Scattered Clouds
3:20 PM 98.6 °F 98.5 °F 59.0 °F 27% 29.79 in 10.0 mi Calm Calm - N/A   Light Drizzle
3:39 PM 98.6 °F 98.5 °F 59.0 °F 27% 29.78 in 10.0 mi Calm Calm - N/A   Light Drizzle
4:55 PM 98.4 °F 98.2 °F 58.6 °F 27% 29.75 in 10.0 mi NE 4.6 mph - N/A   Mostly Cloudy
5:58 PM 98.8 °F 98.3 °F 58.8 °F 26% 29.74 in 10.0 mi ENE 4.6 mph - N/A   Scattered Clouds
6:58 PM 99.0 °F 98.1 °F 57.9 °F 25% 29.75 in 10.0 mi Calm Calm - N/A   Scattered Clouds
7:58 PM 97.5 °F 97.3 °F 58.8 °F 28% 29.77 in 10.0 mi Calm Calm - N/A   Mostly Cloudy
8:58 PM 96.1 °F 96.0 °F 59.5 °F 30% 29.78 in 10.0 mi ENE 3.5 mph - N/A   Overcast
9:58 PM 94.8 °F 95.8 °F 62.1 °F 34% 29.80 in 10.0 mi North 4.6 mph - N/A   Overcast
10:58 PM 93.6 °F 94.6 °F 62.6 °F 36% 29.80 in 10.0 mi North 5.8 mph - N/A   Mostly Cloudy
11:58 PM 94.1 °F 94.6 °F 61.3 °F 34% 29.81 in 10.0 mi SSW 3.5 mph - N/A   Overcast